Date String (YYYY-MM-DD hh:mm:ss) UTC,Instrument flags,absolute air pressure of the measurement (hPa),sample flow rate (lpm),inlet stack bypass flow (lpm),air temperature of the measurement (°C),ambient temperature measured by the external sensor (°C),aerosol sample conditioner tube jacket temperature (°C),OPC LED temperature (°C),internal box temperature (°C),relative humidity of the measurement (%),span deviation,mass concentration of particles derived from Lorenz-Mie calculation of OPC scattering (μg/m³),mass concentration of particles derived from Lorenz-Mie calculation of OPC scattering (μg/m³),mass concentration of particles derived from Lorenz-Mie calculation of OPC scattering (μg/m³)
DateTimeUTC,F1_M11,P_M11,Q1_M11,Q2_M11,T1_M11,T2_M11,T3_M11,T4_M11,T5_M11,U1_M11,ZSPAN_M11,X0_M11,X2_M11,X1_M11
2024-06-18 18:00:00,SystemResetWarning,0826.4,5.01,000.00,027.9,027.1,000.0,036.5,029.7,013.6,0000.0,0028.71,0004.85,0001.95
2024-06-18 18:01:00,SystemResetWarning,0826.4,5.00,000.00,027.9,027.1,000.0,036.5,029.8,013.8,0000.0,0030.20,0004.88,0001.95
2024-06-18 18:02:00,SystemResetWarning,0826.4,4.98,000.00,027.9,027.1,000.0,036.5,029.7,013.7,0000.0,0031.80,0004.84,0001.96
2024-06-18 18:03:00,SystemResetWarning,0826.4,4.99,000.00,027.9,027.1,000.0,036.5,029.8,013.7,0000.0,0030.65,0004.74,0001.99
2024-06-18 18:04:00,SystemResetWarning,0826.4,5.00,000.00,027.9,027.1,000.0,036.5,029.7,013.6,0000.0,0028.90,0004.64,0001.98
2024-06-18 18:05:00,SystemResetWarning,0826.4,5.01,000.00,027.9,027.1,000.0,036.5,029.7,013.9,0000.0,0030.91,0004.64,0001.99
2024-06-18 18:06:00,SystemResetWarning,0826.4,5.01,000.00,027.9,027.1,000.0,036.5,029.7,013.6,0000.0,0031.93,0004.65,0001.98
2024-06-18 18:07:00,SystemResetWarning,0826.4,5.00,000.00,027.9,027.1,000.0,036.5,029.8,013.4,0000.0,0031.52,0004.58,0001.97
2024-06-18 18:08:00,SystemResetWarning,0826.4,4.99,000.00,027.9,027.1,000.0,036.5,029.8,013.8,0000.0,0032.85,0004.68,0001.96
2024-06-18 18:09:00,SystemResetWarning,0826.5,4.99,000.00,027.9,027.1,000.0,036.5,029.8,013.6,0000.0,0034.02,0004.72,0001.94
2024-06-18 18:10:00,SystemResetWarning,0826.5,5.00,000.00,027.9,027.1,000.0,036.5,029.8,013.8,0000.0,0032.80,0004.70,0001.92
2024-06-18 18:11:00,SystemResetWarning,0826.5,5.00,000.00,027.9,027.1,000.0,036.5,029.8,013.4,0000.0,0031.86,0004.73,0001.94
2024-06-18 18:12:00,SystemResetWarning,0826.5,5.00,000.00,027.9,027.2,000.0,036.5,029.8,013.2,0000.0,0031.69,0004.77,0001.96
2024-06-18 18:13:00,SystemResetWarning,0826.5,5.01,000.00,027.9,027.2,000.0,036.5,029.8,013.2,0000.0,0031.33,0004.74,0001.96
2024-06-18 18:14:00,SystemResetWarning,0826.4,4.99,000.00,027.9,027.2,000.0,036.5,029.8,013.7,0000.0,0031.04,0004.77,0001.95
2024-06-18 18:15:00,SystemResetWarning,0826.5,4.99,000.00,028.0,027.2,000.0,036.5,029.8,014.0,0000.0,0034.40,0004.93,0001.98
2024-06-18 18:16:00,SystemResetWarning,0826.5,5.01,000.00,028.0,027.2,000.0,036.5,029.8,013.7,0000.0,0035.08,0005.09,0002.00
2024-06-18 18:17:00,SystemResetWarning,0826.4,5.01,000.00,028.0,027.2,000.0,036.5,029.9,013.6,0000.0,0035.02,0005.19,0002.04
2024-06-18 18:18:00,SystemResetWarning,0826.4,5.01,000.00,028.0,027.2,000.0,036.5,029.9,013.7,0000.0,0036.97,0005.25,0002.07
2024-06-18 18:19:00,SystemResetWarning,0826.5,4.99,000.00,028.0,027.2,000.0,036.5,029.8,014.1,0000.0,0036.83,0005.16,0002.09
2024-06-18 18:20:00,SystemResetWarning,0826.4,5.00,000.00,028.0,027.2,000.0,036.5,029.8,013.6,0000.0,0032.99,0005.02,0002.10
2024-06-18 18:21:00,SystemResetWarning,0826.5,4.99,000.00,028.0,027.2,000.0,036.5,029.8,013.6,0000.0,0033.75,0005.02,0002.11
2024-06-18 18:22:00,SystemResetWarning,0826.5,5.01,000.00,028.0,027.2,000.0,036.5,029.9,013.2,0000.0,0034.94,0005.02,0002.12
2024-06-18 18:23:00,SystemResetWarning,0826.4,5.01,000.00,028.0,027.2,000.0,036.5,029.9,013.2,0000.0,0035.14,0004.97,0002.14
2024-06-18 18:24:00,SystemResetWarning,0826.4,4.99,000.00,028.0,027.2,000.0,036.6,029.9,013.3,0000.0,0034.84,0005.01,0002.17
2024-06-18 18:25:00,SystemResetWarning,0826.4,4.99,000.00,028.0,027.2,000.0,036.6,029.9,012.8,0000.0,0035.31,0005.09,0002.21
2024-06-18 18:26:00,SystemResetWarning,0826.4,5.00,000.00,028.0,027.2,000.0,036.6,029.9,012.6,0000.0,0033.04,0004.92,0002.17
2024-06-18 18:27:00,SystemResetWarning,0826.3,5.01,000.00,028.0,027.3,000.0,036.6,029.9,011.8,0000.0,0033.46,0004.86,0002.12
2024-06-18 18:28:00,SystemResetWarning,0826.3,5.01,000.00,028.0,027.3,000.0,036.6,029.9,012.1,0000.0,0032.11,0004.86,0002.07
2024-06-18 18:29:00,SystemResetWarning,0826.4,5.00,000.00,028.0,027.3,000.0,036.6,029.9,012.0,0000.0,0029.92,0004.89,0002.03
2024-06-18 18:30:00,SystemResetWarning,0826.4,5.00,000.00,028.1,027.3,000.0,036.6,029.9,012.3,0000.0,0029.02,0004.88,0001.96
2024-06-18 18:31:00,SystemResetWarning,0826.5,5.00,000.00,028.0,027.3,000.0,036.6,029.9,012.3,0000.0,0029.32,0004.95,0001.94
2024-06-18 18:32:00,SystemResetWarning,0826.6,5.00,000.00,028.0,027.3,000.0,036.6,029.9,012.3,0000.0,0029.09,0004.94,0001.92
2024-06-18 18:33:00,SystemResetWarning,0826.6,4.99,000.00,028.0,027.3,000.0,036.6,029.9,012.0,0000.0,0027.98,0004.87,0001.90
2024-06-18 18:34:00,SystemResetWarning,0826.6,5.00,000.00,028.0,027.2,000.0,036.6,029.9,012.2,0000.0,0027.89,0004.87,0001.87
2024-06-18 18:35:00,SystemResetWarning,0826.6,5.00,000.00,028.0,027.2,000.0,036.6,029.9,012.1,0000.0,0028.60,0004.86,0001.84
2024-06-18 18:36:00,SystemResetWarning,0826.5,5.00,000.00,028.0,027.3,000.0,036.6,029.9,012.2,0000.0,0029.27,0004.80,0001.81
2024-06-18 18:37:00,SystemResetWarning,0826.4,5.00,000.00,028.0,027.3,000.0,036.6,029.9,013.2,0000.0,0029.03,0004.83,0001.81
2024-06-18 18:38:00,SystemResetWarning,0826.5,5.00,000.00,028.0,027.3,000.0,036.6,029.9,013.0,0000.0,0027.92,0004.78,0001.83
2024-06-18 18:39:00,SystemResetWarning,0826.6,5.00,000.00,028.1,027.3,000.0,036.6,029.9,012.5,0000.0,0031.96,0004.73,0001.84
2024-06-18 18:40:00,SystemResetWarning,0826.6,5.00,000.00,028.1,027.3,000.0,036.6,029.9,012.7,0000.0,0033.55,0004.66,0001.86
2024-06-18 18:41:00,SystemResetWarning,0826.6,5.00,000.00,028.1,027.3,000.0,036.6,029.9,012.8,0000.0,0035.45,0004.69,0001.88
2024-06-18 18:42:00,SystemResetWarning,0826.6,4.99,000.00,028.1,027.3,000.0,036.6,029.9,012.5,0000.0,0036.32,0004.65,0001.89
2024-06-18 18:43:00,SystemResetWarning,0826.6,4.99,000.00,028.1,027.3,000.0,036.6,030.0,012.2,0000.0,0036.75,0004.65,0001.87
2024-06-18 18:44:00,SystemResetWarning,0826.6,5.01,000.00,028.1,027.3,000.0,036.6,030.0,011.9,0000.0,0037.96,0004.62,0001.85
2024-06-18 18:45:00,SystemResetWarning,0826.5,5.01,000.00,028.1,027.3,000.0,036.6,029.9,011.9,0000.0,0038.82,0004.65,0001.82
2024-06-18 18:46:00,SystemResetWarning,0826.4,5.00,000.00,028.1,027.3,000.0,036.6,029.9,011.2,0000.0,0039.12,0004.62,0001.79
2024-06-18 18:47:00,SystemResetWarning,0826.5,5.00,000.00,028.1,027.3,000.0,036.7,030.0,011.8,0000.0,0041.59,0004.63,0001.75
2024-06-18 18:48:00,SystemResetWarning,0826.4,5.00,000.00,028.1,027.3,000.0,036.7,030.0,012.1,0000.0,0041.06,0004.60,0001.73
2024-06-18 18:49:00,SystemResetWarning,0826.4,5.00,000.00,028.1,027.3,000.0,036.7,030.0,012.0,0000.0,0040.41,0004.60,0001.71
2024-06-18 18:50:00,SystemResetWarning,0826.4,5.01,000.00,028.1,027.4,000.0,036.7,030.0,011.8,0000.0,0039.96,0004.57,0001.71
2024-06-18 18:51:00,SystemResetWarning,0826.4,5.00,000.00,028.1,027.4,000.0,036.7,030.0,011.7,0000.0,0040.18,0004.70,0001.71
2024-06-18 18:52:00,SystemResetWarning,0826.4,5.00,000.00,028.2,027.4,000.0,036.7,030.0,011.9,0000.0,0040.49,0004.78,0001.71
2024-06-18 18:53:00,SystemResetWarning,0826.4,5.00,000.00,028.2,027.4,000.0,036.7,030.0,011.8,0000.0,0041.26,0004.81,0001.70
2024-06-18 18:54:00,SystemResetWarning,0826.4,5.00,000.00,028.2,027.4,000.0,036.7,030.0,012.2,0000.0,0041.75,0004.84,0001.71
2024-06-18 18:55:00,SystemResetWarning,0826.4,4.99,000.00,028.2,027.4,000.0,036.7,030.0,012.3,0000.0,0040.51,0004.88,0001.72
2024-06-18 18:56:00,SystemResetWarning,0826.4,5.00,000.00,028.2,027.4,000.0,036.7,030.0,011.9,0000.0,0038.66,0004.88,0001.75
2024-06-18 18:57:00,SystemResetWarning,0826.5,5.00,000.00,028.2,027.4,000.0,036.7,030.0,011.9,0000.0,0037.23,0004.95,0001.75
2024-06-18 18:58:00,SystemResetWarning,0826.5,5.01,000.00,028.2,027.4,000.0,036.7,030.1,011.7,0000.0,0034.46,0004.94,0001.76
2024-06-18 18:59:00,SystemResetWarning,0826.4,5.01,000.00,028.2,027.4,000.0,036.7,030.0,011.5,0000.0,0034.37,0004.97,0001.76
